K4VI Weather Reports


Display with metric or nautical units.
time (UTC)temp
F
wind
direction
speed
MPH
gust
MPH
rain 1hr
in
rain 24hr
in
rain mn
in
humidity
%
barometer
mb
20260906105003 62 310 6.0 14.0 0.00 0.00 0.00 49 1040.6
20260906104503 62 309 5.0 14.0 0.00 0.00 0.00 49 1040.6
20260906104003 62 309 5.0 12.0 0.00 0.00 0.00 49 1040.6
20260906103503 62 309 5.0 12.0 0.00 0.00 0.00 49 1040.6
20260906103003 62 310 6.0 11.0 0.00 0.00 0.00 48 1040.5
20260906102503 62 312 7.0 12.0 0.00 0.00 0.00 48 1040.5
20260906102003 62 312 6.0 12.0 0.00 0.00 0.00 48 1040.5
20260906101503 62 312 5.0 10.0 0.00 0.00 0.00 48 1040.5
20260906101003 62 306 4.0 10.0 0.00 0.00 0.00 48 1040.6
20260906100720 62 304 4.0 10.0 0.00 0.00 0.00 48 1040.6
20260906100003 63 308 5.0 11.0 0.00 0.00 0.00 47 1040.5
20260906095503 62 309 5.0 11.0 0.00 0.00 0.00 47 1040.7
20260906095003 62 312 6.0 13.0 0.00 0.00 0.00 47 1040.6
20260906094717 62 313 6.0 13.0 0.00 0.00 0.00 48 1040.7
20260906094003 61 312 5.0 13.0 0.00 0.00 0.00 50 1040.7
20260906093503 60 313 4.0 10.0 0.00 0.00 0.00 51 1040.7
20260906093221 60 312 3.0 10.0 0.00 0.00 0.00 52 1040.7
20260906092503 59 302 1.0 3.0 0.00 0.00 0.00 52 1040.7
20260906092003 59 299 0.0 2.0 0.00 0.00 0.00 53 1040.7
20260906091503 59 298 1.0 3.0 0.00 0.00 0.00 54 1040.7
20260906091218 59 307 1.0 3.0 0.00 0.00 0.00 53 1040.7
20260906090503 59 323 1.0 3.0 0.00 0.00 0.00 53 1040.7
20260906090003 59 319 1.0 3.0 0.00 0.00 0.00 52 1040.7
20260906085503 60 318 2.0 5.0 0.00 0.00 0.00 51 1040.6
20260906085003 60 316 3.0 5.0 0.00 0.00 0.00 52 1040.6
20260906084503 59 320 3.0 5.0 0.00 0.00 0.00 53 1040.6
20260906084003 59 328 2.0 5.0 0.00 0.00 0.00 53 1040.5
20260906083503 59 331 1.0 3.0 0.00 0.00 0.00 54 1040.6
20260906083216 59 331 1.0 3.0 0.00 0.00 0.00 53 1040.7
20260906082719 59 330 1.0 3.0 0.00 0.00 0.00 53 1040.7
20260906082003 59 336 1.0 3.0 0.00 0.00 0.00 54 1040.7
20260906081503 59 337 2.0 4.0 0.00 0.00 0.00 55 1040.7
20260906081003 59 336 1.0 4.0 0.00 0.00 0.00 55 1040.7
20260906080503 59 345 0.0 3.0 0.00 0.00 0.00 55 1040.7
20260906080004 59 348 0.0 3.0 0.00 0.00 0.00 55 1040.7
20260906075503 59 350 1.0 3.0 0.00 0.00 0.00 55 1040.7
20260906075003 59 350 0.0 3.0 0.00 0.00 0.00 55 1040.7
20260906074503 59 350 0.0 1.0 0.00 0.00 0.00 56 1040.7
20260906074003 59 349 0.0 2.0 0.00 0.00 0.00 56 1040.7
20260906073503 59 4 1.0 3.0 0.00 0.00 0.00 55 1040.7
20260906073217 59 12 1.0 3.0 0.00 0.00 0.00 55 1040.7
20260906072503 59 45 0.0 1.0 0.00 0.00 0.00 55 1040.7
20260906072003 59 44 0.0 1.0 0.00 0.00 0.00 54 1040.7
20260906071503 59 44 0.0 1.0 0.00 0.00 0.00 54 1040.7
20260906071219 59 44 0.0 1.0 0.00 0.00 0.00 54 1040.8
20260906070503 59 44 0.0 1.0 0.00 0.00 0.00 54 1040.8
20260906070003 59 44 0.0 1.0 0.00 0.00 0.00 54 1040.7
20260906065503 60 45 0.0 1.0 0.00 0.00 0.00 54 1040.8
20260906065003 60 45 0.0 1.0 0.00 0.00 0.00 54 1040.8
20260906064719 60 45 0.0 1.0 0.00 0.00 0.00 53 1040.8
20260906064003 60 46 0.0 1.0 0.00 0.00 0.00 53 1040.8
20260906063503 60 46 0.0 2.0 0.00 0.00 0.00 53 1040.8
20260906063003 60 46 0.0 2.0 0.00 0.00 0.00 53 1040.7
20260906062503 60 46 0.0 1.0 0.00 0.00 0.00 53 1040.7
20260906062003 60 46 1.0 3.0 0.00 0.00 0.00 53 1040.7
20260906061717 60 46 1.0 3.0 0.00 0.00 0.00 53 1040.7
20260906061003 60 46 0.0 1.0 0.00 0.00 0.00 53 1040.7
20260906060504 61 46 0.0 1.0 0.00 0.00 0.00 52 1040.6
20260906060004 61 46 0.0 1.0 0.00 0.00 0.00 52 1040.7
20260906055718 61 47 0.0 2.0 0.00 0.00 0.00 51 1040.7
20260906055221 61 56 1.0 2.0 0.00 0.00 0.00 51 1040.7
20260906054503 62 77 1.0 3.0 0.00 0.00 0.00 50 1040.7
20260906054003 62 83 1.0 3.0 0.00 0.00 0.00 50 1040.7
20260906053503 62 86 0.0 2.0 0.00 0.00 0.00 49 1040.7
20260906053003 63 86 0.0 1.0 0.00 0.00 0.00 49 1040.7
20260906052503 63 86 0.0 1.0 0.00 0.00 0.00 49 1040.7
20260906052219 63 86 0.0 1.0 0.00 0.00 0.00 49 1040.7
20260906051503 63 86 0.0 1.0 0.00 0.00 0.00 49 1040.7
20260906051003 63 86 0.0 3.0 0.00 0.00 0.00 48 1040.7
20260906050503 63 86 0.0 3.0 0.00 0.00 0.00 48 1040.7
20260906050004 64 86 0.0 2.0 0.00 0.00 0.00 48 1040.7
20260906045503 64 85 1.0 2.0 0.00 0.00 0.00 49 1040.8
20260906045003 63 85 1.0 2.0 0.00 0.00 0.00 49 1040.8
20260906044720 63 85 1.0 2.0 0.00 0.00 0.00 49 1040.8
20260906044003 63 85 0.0 2.0 0.00 0.00 0.00 48 1040.9
20260906043503 63 85 0.0 2.0 0.00 0.00 0.00 48 1040.9
20260906043219 63 84 0.0 2.0 0.00 0.00 0.00 48 1040.8
20260906042503 63 83 1.0 2.0 0.00 0.00 0.00 48 1040.9
20260906042003 63 83 1.0 2.0 0.00 0.00 0.00 48 1040.9
20260906041718 63 83 0.0 2.0 0.00 0.00 0.00 48 1040.9
20260906041221 63 83 0.0 1.0 0.00 0.00 0.00 48 1040.9
20260906040503 63 83 1.0 3.0 0.00 0.00 0.00 48 1040.8
20260906040004 63 83 1.0 3.0 0.00 0.00 0.00 48 1041.0
20260906035503 63 83 0.0 2.0 0.00 0.00 0.00 48 1041.0
20260906035003 63 83 0.0 1.0 0.00 0.00 0.00 47 1041.0
20260906034503 63 83 0.0 1.0 0.00 0.00 0.00 47 1041.1
20260906034219 63 83 0.0 1.0 0.00 0.00 0.00 47 1041.0
20260906033503 64 83 0.0 1.0 0.00 0.00 0.00 46 1040.9
20260906033003 64 83 0.0 1.0 0.00 0.00 0.00 46 1040.9
20260906032503 64 83 0.0 1.0 0.00 0.00 0.00 45 1040.8
20260906032221 64 83 0.0 1.0 0.00 0.00 0.00 45 1040.8
20260906031503 65 83 0.0 1.0 0.00 0.00 0.00 45 1040.7
20260906031003 65 83 0.0 1.0 0.00 0.00 0.00 44 1040.7
20260906030503 65 70 0.0 1.0 0.00 0.00 0.00 44 1040.7
20260906030003 66 48 0.0 1.0 0.00 0.00 0.00 44 1040.7
20260906025503 66 42 0.0 2.0 0.00 0.00 0.00 43 1040.6
20260906025003 66 43 1.0 2.0 0.00 0.00 0.00 43 1040.5
20260906024503 66 44 1.0 2.0 0.00 0.00 0.00 43 1040.5
20260906024003 66 46 0.0 2.0 0.00 0.00 0.00 43 1040.4
20260906023503 66 45 1.0 3.0 0.00 0.00 0.00 43 1040.3
20260906023220 66 39 1.0 3.0 0.00 0.00 0.00 43 1040.3
20260906022503 67 40 1.0 4.0 0.00 0.00 0.00 43 1040.3
20260906022003 67 47 1.0 4.0 0.00 0.00 0.00 42 1040.2
20260906021503 67 48 1.0 4.0 0.00 0.00 0.00 42 1040.0
20260906021003 67 49 1.0 4.0 0.00 0.00 0.00 42 1040.0
20260906020503 67 48 1.0 3.0 0.00 0.00 0.00 42 1039.9
20260906020004 68 46 1.0 3.0 0.00 0.00 0.00 41 1039.9
20260906015721 68 44 1.0 4.0 0.00 0.00 0.00 41 1039.9
20260906015004 68 42 2.0 4.0 0.00 0.00 0.00 40 1039.8
20260906014503 68 43 2.0 5.0 0.00 0.00 0.00 40 1039.7
20260906014003 69 69 2.0 5.0 0.00 0.00 0.00 39 1039.8
20260906013503 69 87 2.0 7.0 0.00 0.00 0.00 39 1039.8
20260906013003 70 82 1.0 7.0 0.00 0.00 0.00 38 1039.7
20260906012503 70 82 2.0 7.0 0.00 0.00 0.00 38 1039.8
20260906012003 70 83 3.0 7.0 0.00 0.00 0.00 37 1039.7
20260906011503 71 89 3.0 8.0 0.00 0.00 0.00 36 1039.7
20260906011003 71 87 3.0 8.0 0.00 0.00 0.00 35 1039.7
20260906010503 72 77 3.0 8.0 0.00 0.00 0.00 35 1039.7
20260906010003 72 69 3.0 8.0 0.00 0.00 0.00 34 1039.7
20260906005717 72 63 2.0 7.0 0.00 0.00 0.00 33 1039.7
20260906005003 72 58 2.0 6.0 0.00 0.00 0.00 31 1039.7
20260906004503 72 59 1.0 3.0 0.00 0.00 0.00 31 1039.7
20260906004221 72 58 2.0 5.0 0.00 0.00 0.00 31 1039.7
20260906003503 72 58 3.0 7.0 0.00 0.00 0.00 32 1039.6
20260906003003 72 91 5.0 10.0 0.00 0.00 0.00 33 1039.6
20260906002503 73 112 6.0 11.0 0.00 0.00 0.00 33 1039.6
20260906002003 73 114 7.0 14.0 0.00 0.00 0.00 34 1039.6
20260906001503 74 113 6.0 14.0 0.00 0.00 0.00 33 1039.5
20260906001003 74 113 5.0 11.0 0.00 0.00 0.00 30 1039.4
20260906000503 75 110 6.0 12.0 0.00 0.00 0.00 30 1039.3
20260906000003 75 109 6.0 12.0 0.00 0.00 0.00 30 1039.3
20260905235717 75 111 5.0 11.0 0.00 0.00 0.00 30 1039.3
20260905235003 75 114 7.0 13.0 0.00 0.00 0.00 30 1039.1
20260905234503 76 113 7.0 14.0 0.00 0.00 0.00 30 1039.1
20260905234003 75 105 7.0 14.0 0.00 0.00 0.00 30 1039.1
20260905233503 75 105 7.0 13.0 0.00 0.00 0.00 30 1039.2
20260905233003 76 112 7.0 13.0 0.00 0.00 0.00 28 1039.1
20260905232503 78 110 5.0 12.0 0.00 0.00 0.00 27 1039.1
20260905232003 79 108 4.0 11.0 0.00 0.00 0.00 26 1039.1
20260905231503 80 109 4.0 11.0 0.00 0.00 0.00 26 1038.9
20260905231003 80 108 5.0 11.0 0.00 0.00 0.00 26 1039.0
20260905230717 80 109 5.0 12.0 0.00 0.00 0.00 26 1039.0
20260905230003 82 114 6.0 12.0 0.00 0.00 0.00 23 1039.1
20260905225503 82 120 4.0 10.0 0.00 0.00 0.00 18 1039.0
20260905225003 82 154 3.0 7.0 0.00 0.00 0.00 16 1039.0
20260905224503 82 217 3.0 6.0 0.00 0.00 0.00 15 1039.0
20260905224003 81 248 3.0 7.0 0.00 0.00 0.00 16 1039.1
20260905223503 80 282 3.0 7.0 0.00 0.00 0.00 18 1039.1
20260905223003 80 267 3.0 6.0 0.00 0.00 0.00 18 1039.1
20260905222503 79 223 2.0 6.0 0.00 0.00 0.00 18 1039.1
20260905222003 80 205 2.0 6.0 0.00 0.00 0.00 18 1039.2
20260905221503 81 186 2.0 7.0 0.00 0.00 0.00 18 1039.1
20260905221003 81 164 4.0 8.0 0.00 0.00 0.00 18 1039.2
20260905220503 80 123 6.0 16.0 0.00 0.00 0.00 18 1039.2
20260905220003 80 111 7.0 16.0 0.00 0.00 0.00 18 1039.3
20260905215503 81 111 5.0 13.0 0.00 0.00 0.00 18 1039.3
20260905215003 81 123 5.0 11.0 0.00 0.00 0.00 19 1039.3
20260905214719 80 125 6.0 12.0 0.00 0.00 0.00 18 1039.4
20260905214003 81 141 5.0 12.0 0.00 0.00 0.00 19 1039.4
20260905213503 80 137 5.0 11.0 0.00 0.00 0.00 20 1039.5
20260905213003 80 127 5.0 11.0 0.00 0.00 0.00 21 1039.5
20260905212503 80 130 5.0 11.0 0.00 0.00 0.00 21 1039.6
20260905212003 80 127 5.0 11.0 0.00 0.00 0.00 21 1039.6
20260905211503 81 149 4.0 15.0 0.00 0.00 0.00 22 1039.7
20260905211220 81 175 4.0 15.0 0.00 0.00 0.00 20 1039.7
20260905210503 81 170 3.0 9.0 0.00 0.00 0.00 23 1039.8
20260905210221 80 154 3.0 9.0 0.00 0.00 0.00 24 1039.7
20260905205503 79 119 3.0 9.0 0.00 0.00 0.00 24 1039.8
20260905205003 79 145 4.0 14.0 0.00 0.00 0.00 24 1039.9
20260905204503 80 139 5.0 14.0 0.00 0.00 0.00 24 1040.0
20260905204003 79 209 4.0 9.0 0.00 0.00 0.00 25 1040.1
20260905203503 79 193 5.0 14.0 0.00 0.00 0.00 25 1040.1
20260905203003 79 188 5.0 14.0 0.00 0.00 0.00 25 1040.2
20260905202503 78 246 4.0 9.0 0.00 0.00 0.00 25 1040.2
20260905202003 79 192 4.0 8.0 0.00 0.00 0.00 25 1040.2
20260905201718 78 132 4.0 11.0 0.00 0.00 0.00 25 1040.2
20260905201003 79 141 5.0 11.0 0.00 0.00 0.00 25 1040.3
20260905200503 79 169 5.0 12.0 0.00 0.00 0.00 25 1040.3
20260905200217 78 174 4.0 12.0 0.00 0.00 0.00 26 1040.3
20260905195720 78 170 3.0 12.0 0.00 0.00 0.00 26 1040.3
20260905195004 76 149 6.0 19.0 0.00 0.00 0.00 28 1040.5
20260905194503 77 155 6.0 19.0 0.00 0.00 0.00 27 1040.3
20260905194003 76 202 3.0 7.0 0.00 0.00 0.00 28 1040.5
20260905193503 76 283 5.0 12.0 0.00 0.00 0.00 29 1040.6
20260905193003 76 288 4.0 12.0 0.00 0.00 0.00 29 1040.7
20260905192503 76 258 3.0 10.0 0.00 0.00 0.00 29 1040.7
20260905192221 76 237 4.0 10.0 0.00 0.00 0.00 29 1040.7
20260905191503 76 124 3.0 8.0 0.00 0.00 0.00 29 1040.7
20260905191003 75 267 4.0 13.0 0.00 0.00 0.00 30 1040.8
20260905190719 74 262 5.0 13.0 0.00 0.00 0.00 31 1040.7
20260905190003 74 297 4.0 10.0 0.00 0.00 0.00 30 1040.9
20260905185503 74 315 4.0 12.0 0.00 0.00 0.00 30 1040.9
20260905185003 74 300 4.0 12.0 0.00 0.00 0.00 31 1041.0
20260905184722 74 270 4.0 12.0 0.00 0.00 0.00 32 1041.1
20260905184003 74 269 4.0 11.0 0.00 0.00 0.00 31 1041.2
20260905183503 74 214 3.0 8.0 0.00 0.00 0.00 31 1041.3
20260905183003 75 154 3.0 8.0 0.00 0.00 0.00 31 1041.3
20260905182503 74 277 3.0 10.0 0.00 0.00 0.00 31 1041.3
20260905182003 74 300 5.0 10.0 0.00 0.00 0.00 31 1041.4
20260905181719 74 299 5.0 10.0 0.00 0.00 0.00 31 1041.5
20260905181003 74 284 4.0 10.0 0.00 0.00 0.00 32 1041.4
20260905180503 73 311 4.0 10.0 0.00 0.00 0.00 32 1041.5
20260905180003 73 308 5.0 11.0 0.00 0.00 0.00 32 1041.6
20260905175503 73 290 5.0 11.0 0.00 0.00 0.00 33 1041.6
20260905175003 73 276 4.0 8.0 0.00 0.00 0.00 33 1041.7
20260905174503 72 280 3.0 8.0 0.00 0.00 0.00 33 1041.6
20260905174003 72 298 4.0 9.0 0.00 0.00 0.00 34 1041.6
20260905173503 72 295 4.0 9.0 0.00 0.00 0.00 32 1041.6
20260905173003 72 273 4.0 9.0 0.00 0.00 0.00 33 1041.7
20260905172503 72 270 4.0 9.0 0.00 0.00 0.00 32 1041.9
20260905172003 72 288 4.0 10.0 0.00 0.00 0.00 33 1041.7
20260905171720 72 287 4.0 10.0 0.00 0.00 0.00 34 1041.8
20260905171003 71 266 4.0 10.0 0.00 0.00 0.00 33 1041.8
20260905170503 71 285 4.0 13.0 0.00 0.00 0.00 34 1041.8
20260905170003 71 279 5.0 13.0 0.00 0.00 0.00 34 1041.8
20260905165722 71 257 4.0 13.0 0.00 0.00 0.00 34 1041.8
20260905165003 70 254 4.0 10.0 0.00 0.00 0.00 36 1041.8
20260905164503 70 259 3.0 10.0 0.00 0.00 0.00 36 1042.0
20260905164003 70 288 3.0 8.0 0.00 0.00 0.00 36 1042.0
20260905163503 69 302 5.0 11.0 0.00 0.00 0.00 37 1042.0
20260905163003 69 304 5.0 11.0 0.00 0.00 0.00 37 1041.9
20260905162503 69 305 6.0 16.0 0.00 0.00 0.00 37 1041.8
20260905162218 68 299 6.0 16.0 0.00 0.00 0.00 38 1041.9
20260905161503 68 284 6.0 12.0 0.00 0.00 0.00 38 1041.7
20260905161003 68 296 6.0 12.0 0.00 0.00 0.00 39 1041.8
20260905160503 67 307 6.0 12.0 0.00 0.00 0.00 39 1041.8
20260905160003 67 296 5.0 12.0 0.00 0.00 0.00 40 1041.8
20260905155504 67 297 5.0 11.0 0.00 0.00 0.00 40 1041.9
20260905155003 67 315 5.0 11.0 0.00 0.00 0.00 40 1041.9
20260905154503 67 314 5.0 12.0 0.00 0.00 0.00 41 1041.9
20260905154221 66 310 6.0 12.0 0.00 0.00 0.00 40 1042.0
20260905153719 66 309 6.0 13.0 0.00 0.00 0.00 40 1042.0
20260905153003 67 293 5.0 10.0 0.00 0.00 0.00 40 1042.0
20260905152503 66 304 5.0 10.0 0.00 0.00 0.00 40 1041.9
20260905152218 66 302 5.0 10.0 0.00 0.00 0.00 41 1041.9
20260905151503 66 283 4.0 10.0 0.00 0.00 0.00 41 1041.9
20260905151003 66 254 4.0 10.0 0.00 0.00 0.00 42 1041.9
20260905150503 66 274 4.0 10.0 0.00 0.00 0.00 42 1042.0
20260905150220 65 298 4.0 9.0 0.00 0.00 0.00 42 1042.0
20260905145503 65 305 3.0 8.0 0.00 0.00 0.00 43 1041.9
20260905145221 64 310 3.0 11.0 0.00 0.00 0.00 43 1042.0
20260905144503 64 313 4.0 11.0 0.00 0.00 0.00 43 1042.0
20260905144217 64 308 3.0 11.0 0.00 0.00 0.00 44 1041.9
20260905143503 64 306 5.0 13.0 0.00 0.00 0.00 44 1041.8
20260905143003 64 315 6.0 13.0 0.00 0.00 0.00 44 1041.8
20260905142503 64 312 6.0 12.0 0.00 0.00 0.00 44 1041.7
20260905142003 64 307 7.0 14.0 0.00 0.00 0.00 43 1041.6
20260905141503 64 312 8.0 15.0 0.00 0.00 0.00 44 1041.5
20260905141220 64 316 9.0 15.0 0.00 0.00 0.00 44 1041.5
20260905140503 63 318 10.0 16.0 0.00 0.00 0.00 44 1041.4
20260905140004 63 317 10.0 16.0 0.00 0.00 0.00 44 1041.2
20260905135503 63 317 10.0 17.0 0.00 0.00 0.00 44 1041.2
20260905135003 63 315 9.0 17.0 0.00 0.00 0.00 44 1041.2
20260905134503 63 313 8.0 18.0 0.00 0.00 0.00 45 1041.2
20260905134003 62 315 7.0 18.0 0.00 0.00 0.00 45 1041.1
20260905133503 62 319 6.0 12.0 0.00 0.00 0.00 45 1041.1
20260905133218 62 319 6.0 11.0 0.00 0.00 0.00 45 1041.1
20260905132503 61 315 6.0 12.0 0.00 0.00 0.00 47 1041.1
20260905132003 61 315 7.0 12.0 0.00 0.00 0.00 47 1041.0
20260905131717 61 317 7.0 11.0 0.00 0.00 0.00 47 1041.0
20260905131003 61 315 8.0 12.0 0.00 0.00 0.00 47 1041.0
20260905130503 61 315 7.0 12.0 0.00 0.00 0.00 47 1040.9
20260905130003 61 317 7.0 11.0 0.00 0.00 0.00 47 1040.8
20260905125719 61 316 7.0 12.0 0.00 0.00 0.00 47 1040.7
20260905125003 62 315 6.0 12.0 0.00 0.00 0.00 47 1040.7
20260905124503 62 312 5.0 12.0 0.00 0.00 0.00 47 1040.7
20260905124003 62 313 5.0 10.0 0.00 0.00 0.00 47 1040.6
20260905123503 62 311 5.0 10.0 0.00 0.00 0.00 46 1040.5
20260905123003 62 309 5.0 9.0 0.00 0.00 0.00 47 1040.6
20260905122503 62 311 5.0 9.0 0.00 0.00 0.00 47 1040.4
20260905122003 61 311 5.0 9.0 0.00 0.00 0.00 48 1040.4
20260905121503 61 311 5.0 10.0 0.00 0.00 0.00 48 1040.5
20260905121003 61 312 5.0 10.0 0.00 0.00 0.00 48 1040.5
20260905120503 61 312 5.0 8.0 0.00 0.00 0.00 49 1040.6
20260905120003 61 312 5.0 9.0 0.00 0.00 0.00 50 1040.6
20260905115503 60 314 5.0 9.0 0.00 0.00 0.00 50 1040.5
20260905115003 60 313 5.0 9.0 0.00 0.00 0.00 51 1040.4
20260905114503 60 310 4.0 8.0 0.00 0.00 0.00 52 1040.6
20260905114003 60 309 4.0 8.0 0.00 0.00 0.00 52 1040.6
20260905113503 60 311 4.0 7.0 0.00 0.00 0.00 52 1040.7
20260905113003 60 316 5.0 8.0 0.00 0.00 0.00 51 1040.7
20260905112503 60 315 5.0 9.0 0.00 0.00 0.00 51 1040.7
20260905112003 61 311 5.0 10.0 0.00 0.00 0.00 51 1040.7
20260905111503 61 308 6.0 10.0 0.00 0.00 0.00 51 1040.6
20260905111003 60 309 6.0 9.0 0.00 0.00 0.00 51 1040.6
20260905110503 60 311 5.0 9.0 0.00 0.00 0.00 51 1040.5
20260905110218 60 312 5.0 9.0 0.00 0.00 0.00 51 1040.5
20260905105503 60 311 5.0 10.0 0.00 0.00 0.00 51 1040.4